Time,TemperatureF,DewpointF,PressureIn,WindDirection,WindDirectionDegrees,WindSpeedMPH,WindSpeedGustMPH,Humidity,HourlyPrecipIn,Conditions,Clouds,dailyrainin,SoftwareType,DateUTC
2013-08-13 00:01:00,75.2,66.4,30.40,North,0,0.0,0.0,74,0.00,,,0.31,WUHU216HW,2013-08-13 04:01:00,
2013-08-13 00:02:00,75.1,66.3,30.40,North,0,0.0,0.0,74,0.00,,,0.00,WUHU216HW,2013-08-13 04:02:00,
2013-08-13 00:07:00,74.9,66.4,30.40,North,0,0.0,0.0,75,0.00,,,0.00,WUHU216HW,2013-08-13 04:07:00,
2013-08-13 00:12:00,74.9,66.4,30.40,North,0,0.0,0.0,75,0.00,,,0.00,WUHU216HW,2013-08-13 04:12:00,
2013-08-13 00:17:00,74.7,66.2,30.40,North,0,0.0,0.0,75,0.00,,,0.00,WUHU216HW,2013-08-13 04:17:00,
2013-08-13 00:22:00,74.5,66.1,30.40,North,0,0.0,0.0,75,0.00,,,0.00,WUHU216HW,2013-08-13 04:22:00,
2013-08-13 00:27:00,74.5,66.1,30.40,North,0,0.0,0.0,75,0.00,,,0.00,WUHU216HW,2013-08-13 04:27:00,
2013-08-13 00:32:00,74.5,66.1,30.40,North,0,0.0,0.0,75,0.00,,,0.00,WUHU216HW,2013-08-13 04:32:00,
2013-08-13 00:37:00,74.3,65.9,30.40,North,0,0.0,0.0,75,0.00,,,0.00,WUHU216HW,2013-08-13 04:37:00,
2013-08-13 00:42:00,74.3,65.9,30.40,North,0,0.0,0.0,75,0.00,,,0.00,WUHU216HW,2013-08-13 04:42:00,
2013-08-13 00:47:00,74.2,66.2,30.40,North,0,0.0,0.0,76,0.00,,,0.00,WUHU216HW,2013-08-13 04:47:00,
2013-08-13 00:53:00,74.2,66.5,30.40,North,0,0.0,0.0,77,0.00,,,0.00,WUHU216HW,2013-08-13 04:53:00,
2013-08-13 00:58:00,74.0,66.7,30.40,North,0,0.0,0.0,78,0.00,,,0.00,WUHU216HW,2013-08-13 04:58:00,
2013-08-13 01:03:00,73.8,67.0,30.40,North,0,0.0,0.0,79,0.00,,,0.00,WUHU216HW,2013-08-13 05:03:00,
2013-08-13 01:08:00,73.4,67.0,30.40,North,0,0.0,0.0,80,0.00,,,0.00,WUHU216HW,2013-08-13 05:08:00,
2013-08-13 01:13:00,73.3,66.8,30.40,North,0,0.0,0.0,80,0.00,,,0.00,WUHU216HW,2013-08-13 05:13:00,
2013-08-13 01:18:00,73.1,67.0,30.39,North,0,0.0,0.0,81,0.00,,,0.00,WUHU216HW,2013-08-13 05:18:00,
2013-08-13 01:23:00,72.9,66.4,30.39,North,0,0.0,0.0,80,0.00,,,0.00,WUHU216HW,2013-08-13 05:23:00,
2013-08-13 01:28:00,72.7,66.2,30.39,North,0,0.0,0.0,80,0.00,,,0.00,WUHU216HW,2013-08-13 05:28:00,
2013-08-13 01:33:00,72.7,65.9,30.39,North,0,0.0,0.0,79,0.00,,,0.00,WUHU216HW,2013-08-13 05:33:00,
2013-08-13 01:38:00,72.5,65.7,30.39,North,0,0.0,0.0,79,0.00,,,0.00,WUHU216HW,2013-08-13 05:38:00,
2013-08-13 01:43:00,72.4,64.7,30.39,North,0,0.0,0.0,77,0.00,,,0.00,WUHU216HW,2013-08-13 05:43:00,
2013-08-13 01:48:00,72.2,64.2,30.39,North,0,0.0,0.0,76,0.00,,,0.00,WUHU216HW,2013-08-13 05:48:00,
2013-08-13 01:53:00,72.0,64.0,30.38,North,0,0.0,0.0,76,0.00,,,0.00,WUHU216HW,2013-08-13 05:53:00,
2013-08-13 01:58:00,72.0,64.0,30.38,North,0,0.0,0.0,76,0.00,,,0.00,WUHU216HW,2013-08-13 05:58:00,
2013-08-13 02:03:00,72.0,64.0,30.38,North,0,0.0,0.0,76,0.00,,,0.00,WUHU216HW,2013-08-13 06:03:00,
2013-08-13 02:08:00,71.8,63.8,30.38,North,0,0.0,0.0,76,0.00,,,0.00,WUHU216HW,2013-08-13 06:08:00,
2013-08-13 02:13:00,71.8,63.8,30.38,North,0,0.0,0.0,76,0.00,,,0.00,WUHU216HW,2013-08-13 06:13:00,
2013-08-13 02:18:00,71.6,63.6,30.38,North,0,0.0,0.0,76,0.00,,,0.00,WUHU216HW,2013-08-13 06:18:00,
2013-08-13 02:23:00,71.6,63.6,30.38,North,0,0.0,0.0,76,0.00,,,0.00,WUHU216HW,2013-08-13 06:23:00,
2013-08-13 02:28:00,71.6,64.0,30.37,North,0,0.0,0.0,77,0.00,,,0.00,WUHU216HW,2013-08-13 06:28:00,
2013-08-13 02:34:00,71.5,63.8,30.37,North,0,0.0,0.0,77,0.00,,,0.00,WUHU216HW,2013-08-13 06:34:00,
2013-08-13 02:39:00,71.5,63.8,30.37,North,0,0.0,0.0,77,0.00,,,0.00,WUHU216HW,2013-08-13 06:39:00,
2013-08-13 02:44:00,71.6,64.0,30.37,North,0,0.0,0.0,77,0.00,,,0.00,WUHU216HW,2013-08-13 06:44:00,
2013-08-13 02:49:00,71.5,63.8,30.37,North,0,0.0,0.0,77,0.00,,,0.00,WUHU216HW,2013-08-13 06:49:00,
2013-08-13 02:54:00,71.3,63.6,30.37,North,0,0.0,0.0,77,0.00,,,0.00,WUHU216HW,2013-08-13 06:54:00,
2013-08-13 02:59:00,71.3,63.6,30.37,North,0,0.0,0.0,77,0.00,,,0.00,WUHU216HW,2013-08-13 06:59:00,
2013-08-13 03:04:00,71.3,63.6,30.37,North,0,0.0,0.0,77,0.00,,,0.00,WUHU216HW,2013-08-13 07:04:00,
2013-08-13 03:09:00,71.3,63.6,30.37,North,0,0.0,0.0,77,0.00,,,0.00,WUHU216HW,2013-08-13 07:09:00,
2013-08-13 03:14:00,71.3,64.1,30.37,North,0,0.0,0.0,78,0.00,,,0.00,WUHU216HW,2013-08-13 07:14:00,
2013-08-13 03:19:00,71.3,64.1,30.37,North,0,0.0,0.0,78,0.00,,,0.00,WUHU216HW,2013-08-13 07:19:00,
2013-08-13 03:24:00,71.1,63.9,30.37,North,0,0.0,0.0,78,0.00,,,0.00,WUHU216HW,2013-08-13 07:24:00,
2013-08-13 03:29:00,71.3,64.5,30.37,North,0,0.0,0.0,79,0.00,,,0.00,WUHU216HW,2013-08-13 07:29:00,
2013-08-13 03:34:00,71.1,64.3,30.37,North,0,0.0,0.0,79,0.00,,,0.00,WUHU216HW,2013-08-13 07:34:00,
2013-08-13 03:39:00,71.3,64.5,30.37,North,0,0.0,0.0,79,0.00,,,0.00,WUHU216HW,2013-08-13 07:39:00,
2013-08-13 03:44:00,71.1,64.3,30.37,North,0,0.0,0.0,79,0.00,,,0.00,WUHU216HW,2013-08-13 07:44:00,
2013-08-13 03:49:00,71.1,64.3,30.37,North,0,0.0,0.0,79,0.00,,,0.00,WUHU216HW,2013-08-13 07:49:00,
2013-08-13 03:54:00,71.1,64.6,30.38,North,0,0.0,0.0,80,0.00,,,0.00,WUHU216HW,2013-08-13 07:54:00,
2013-08-13 04:00:00,70.9,64.8,30.38,North,0,0.0,0.0,81,0.00,,,0.00,WUHU216HW,2013-08-13 08:00:00,
2013-08-13 04:05:00,70.7,64.6,30.38,North,0,0.0,0.0,81,0.00,,,0.00,WUHU216HW,2013-08-13 08:05:00,
2013-08-13 04:10:00,70.6,64.8,30.38,North,0,0.0,0.0,82,0.00,,,0.00,WUHU216HW,2013-08-13 08:10:00,
2013-08-13 04:15:00,70.6,64.8,30.38,North,0,0.0,0.0,82,0.00,,,0.00,WUHU216HW,2013-08-13 08:15:00,
2013-08-13 04:20:00,70.6,64.8,30.38,North,0,0.0,0.0,82,0.00,,,0.00,WUHU216HW,2013-08-13 08:20:00,
2013-08-13 04:25:00,70.6,64.8,30.38,North,0,0.0,0.0,82,0.00,,,0.00,WUHU216HW,2013-08-13 08:25:00,
2013-08-13 04:30:00,70.6,64.8,30.38,North,0,0.0,0.0,82,0.00,,,0.00,WUHU216HW,2013-08-13 08:30:00,
2013-08-13 04:35:00,70.6,64.8,30.38,North,0,0.0,0.0,82,0.00,,,0.00,WUHU216HW,2013-08-13 08:35:00,
2013-08-13 04:40:00,70.4,64.3,30.38,North,0,0.0,0.0,81,0.00,,,0.00,WUHU216HW,2013-08-13 08:40:00,
2013-08-13 04:45:00,70.2,64.1,30.38,North,0,0.0,0.0,81,0.00,,,0.00,WUHU216HW,2013-08-13 08:45:00,
2013-08-13 04:50:00,70.2,64.1,30.38,North,0,0.0,0.0,81,0.00,,,0.00,WUHU216HW,2013-08-13 08:50:00,
2013-08-13 04:55:00,70.0,64.3,30.38,North,0,0.0,0.0,82,0.00,,,0.00,WUHU216HW,2013-08-13 08:55:00,
2013-08-13 05:01:00,69.8,64.1,30.38,North,0,0.0,0.0,82,0.00,,,0.00,WUHU216HW,2013-08-13 09:01:00,
2013-08-13 05:06:00,69.7,63.9,30.38,North,0,0.0,0.0,82,0.00,,,0.00,WUHU216HW,2013-08-13 09:06:00,
2013-08-13 05:11:00,69.5,63.7,30.38,North,0,0.0,0.0,82,0.00,,,0.00,WUHU216HW,2013-08-13 09:11:00,
2013-08-13 05:16:00,69.3,63.5,30.38,North,0,0.0,0.0,82,0.00,,,0.00,WUHU216HW,2013-08-13 09:16:00,
2013-08-13 05:21:00,69.1,63.4,30.38,North,0,0.0,0.0,82,0.00,,,0.00,WUHU216HW,2013-08-13 09:21:00,
2013-08-13 05:26:00,68.9,63.2,30.38,North,0,0.0,0.0,82,0.00,,,0.00,WUHU216HW,2013-08-13 09:26:00,
2013-08-13 05:31:00,68.8,63.4,30.38,North,0,0.0,0.0,83,0.00,,,0.00,WUHU216HW,2013-08-13 09:31:00,
2013-08-13 05:36:00,68.8,63.4,30.38,North,0,0.0,0.0,83,0.00,,,0.00,WUHU216HW,2013-08-13 09:36:00,
2013-08-13 05:41:00,68.6,63.2,30.38,North,0,0.0,0.0,83,0.00,,,0.00,WUHU216HW,2013-08-13 09:41:00,
2013-08-13 05:46:00,68.4,63.1,30.39,North,0,0.0,0.0,83,0.00,,,0.00,WUHU216HW,2013-08-13 09:46:00,
2013-08-13 05:51:00,68.4,63.1,30.39,North,0,0.0,0.0,83,0.00,,,0.00,WUHU216HW,2013-08-13 09:51:00,
2013-08-13 05:56:00,68.0,62.7,30.39,North,0,0.0,0.0,83,0.00,,,0.00,WUHU216HW,2013-08-13 09:56:00,
2013-08-13 06:02:00,68.0,63.0,30.40,North,0,0.0,0.0,84,0.00,,,0.00,WUHU216HW,2013-08-13 10:02:00,
2013-08-13 06:07:00,67.7,62.6,30.39,North,0,0.0,0.0,84,0.00,,,0.00,WUHU216HW,2013-08-13 10:07:00,
2013-08-13 06:12:00,67.7,62.6,30.39,North,0,0.0,0.0,84,0.00,,,0.00,WUHU216HW,2013-08-13 10:12:00,
2013-08-13 06:17:00,67.5,62.5,30.40,North,0,0.0,0.0,84,0.00,,,0.00,WUHU216HW,2013-08-13 10:17:00,
2013-08-13 06:22:00,67.3,62.3,30.39,North,0,0.0,0.0,84,0.00,,,0.00,WUHU216HW,2013-08-13 10:22:00,
2013-08-13 06:27:00,67.3,62.3,30.40,North,0,0.0,0.0,84,0.00,,,0.00,WUHU216HW,2013-08-13 10:27:00,
2013-08-13 06:32:00,67.1,62.1,30.40,North,0,0.0,0.0,84,0.00,,,0.00,WUHU216HW,2013-08-13 10:32:00,
2013-08-13 06:37:00,67.0,61.9,30.40,North,0,0.0,0.0,84,0.00,,,0.00,WUHU216HW,2013-08-13 10:37:00,
2013-08-13 06:42:00,67.0,61.9,30.40,North,0,0.0,0.0,84,0.00,,,0.00,WUHU216HW,2013-08-13 10:42:00,
2013-08-13 06:47:00,66.8,61.7,30.40,North,0,0.0,0.0,84,0.00,,,0.00,WUHU216HW,2013-08-13 10:47:00,
2013-08-13 06:52:00,66.6,61.6,30.40,North,0,0.0,0.0,84,0.00,,,0.00,WUHU216HW,2013-08-13 10:52:00,
2013-08-13 06:57:00,66.6,61.6,30.41,North,0,0.0,0.0,84,0.00,,,0.00,WUHU216HW,2013-08-13 10:57:00,
2013-08-13 07:02:00,66.4,61.4,30.41,North,0,0.0,0.0,84,0.00,,,0.00,WUHU216HW,2013-08-13 11:02:00,
2013-08-13 07:07:00,66.4,61.4,30.42,North,0,0.0,0.0,84,0.00,,,0.00,WUHU216HW,2013-08-13 11:07:00,
2013-08-13 07:12:00,66.2,61.2,30.42,North,0,0.0,0.0,84,0.00,,,0.00,WUHU216HW,2013-08-13 11:12:00,
2013-08-13 07:17:00,66.2,61.2,30.42,North,0,0.0,0.0,84,0.00,,,0.00,WUHU216HW,2013-08-13 11:17:00,
2013-08-13 07:23:00,66.2,61.2,30.42,North,0,0.0,0.0,84,0.00,,,0.00,WUHU216HW,2013-08-13 11:23:00,
2013-08-13 07:27:00,66.2,61.2,30.43,North,0,0.0,0.0,84,0.00,,,0.00,WUHU216HW,2013-08-13 11:27:00,
2013-08-13 07:33:00,66.1,61.0,30.43,North,0,0.0,0.0,84,0.00,,,0.00,WUHU216HW,2013-08-13 11:33:00,
2013-08-13 07:38:00,65.9,60.9,30.42,North,0,0.0,0.0,84,0.00,,,0.00,WUHU216HW,2013-08-13 11:38:00,
2013-08-13 07:43:00,65.9,60.9,30.42,North,0,0.0,0.0,84,0.00,,,0.00,WUHU216HW,2013-08-13 11:43:00,
2013-08-13 07:48:00,65.9,61.2,30.42,North,0,0.0,0.0,85,0.00,,,0.00,WUHU216HW,2013-08-13 11:48:00,
2013-08-13 07:53:00,65.9,61.2,30.43,North,0,0.0,0.0,85,0.00,,,0.00,WUHU216HW,2013-08-13 11:53:00,
2013-08-13 07:58:00,65.9,61.2,30.43,North,0,0.0,0.0,85,0.00,,,0.00,WUHU216HW,2013-08-13 11:58:00,
2013-08-13 08:03:00,65.9,61.2,30.43,North,0,0.0,0.0,85,0.00,,,0.00,WUHU216HW,2013-08-13 12:03:00,
2013-08-13 08:08:00,65.9,61.2,30.44,North,0,0.0,0.0,85,0.00,,,0.00,WUHU216HW,2013-08-13 12:08:00,
2013-08-13 08:13:00,65.9,61.2,30.44,North,0,0.0,0.0,85,0.00,,,0.00,WUHU216HW,2013-08-13 12:13:00,
2013-08-13 08:18:00,65.9,61.2,30.45,North,0,0.0,0.0,85,0.00,,,0.00,WUHU216HW,2013-08-13 12:18:00,
2013-08-13 08:24:00,66.1,61.4,30.45,North,0,0.0,0.0,85,0.00,,,0.00,WUHU216HW,2013-08-13 12:24:00,
2013-08-13 08:29:00,66.1,61.4,30.44,North,0,0.0,0.0,85,0.00,,,0.00,WUHU216HW,2013-08-13 12:29:00,
2013-08-13 08:34:00,66.2,61.6,30.44,North,0,0.0,0.0,85,0.00,,,0.00,WUHU216HW,2013-08-13 12:34:00,
2013-08-13 08:39:00,66.1,61.4,30.44,North,0,0.0,0.0,85,0.00,,,0.00,WUHU216HW,2013-08-13 12:39:00,
2013-08-13 08:44:00,65.9,61.2,30.44,North,0,0.0,0.0,85,0.00,,,0.00,WUHU216HW,2013-08-13 12:44:00,
2013-08-13 08:49:00,65.9,61.2,30.44,North,0,0.0,0.0,85,0.00,,,0.00,WUHU216HW,2013-08-13 12:49:00,
2013-08-13 08:54:00,65.9,61.2,30.44,North,0,0.0,0.0,85,0.00,,,0.00,WUHU216HW,2013-08-13 12:54:00,
2013-08-13 08:59:00,65.7,61.0,30.44,North,0,0.0,0.0,85,0.00,,,0.00,WUHU216HW,2013-08-13 12:59:00,
2013-08-13 09:04:00,65.9,61.2,30.45,North,0,0.0,0.0,85,0.00,,,0.00,WUHU216HW,2013-08-13 13:04:00,
2013-08-13 09:09:00,65.9,61.2,30.45,North,0,0.0,0.0,85,0.00,,,0.00,WUHU216HW,2013-08-13 13:09:00,
2013-08-13 09:14:00,65.9,60.9,30.46,North,0,0.0,0.0,84,0.00,,,0.00,WUHU216HW,2013-08-13 13:14:00,
2013-08-13 09:19:00,65.9,60.9,30.46,North,0,0.0,0.0,84,0.00,,,0.00,WUHU216HW,2013-08-13 13:19:00,
2013-08-13 09:24:00,65.9,60.9,30.46,North,0,0.0,0.0,84,0.00,,,0.00,WUHU216HW,2013-08-13 13:24:00,
2013-08-13 09:29:00,66.1,61.0,30.46,North,0,0.0,0.0,84,0.00,,,0.00,WUHU216HW,2013-08-13 13:29:00,
2013-08-13 09:34:00,66.2,61.2,30.46,North,0,0.0,0.0,84,0.00,,,0.00,WUHU216HW,2013-08-13 13:34:00,
2013-08-13 09:39:00,66.4,61.4,30.46,North,0,0.0,0.0,84,0.00,,,0.00,WUHU216HW,2013-08-13 13:39:00,
2013-08-13 09:45:00,66.6,61.6,30.46,North,0,0.0,0.0,84,0.00,,,0.00,WUHU216HW,2013-08-13 13:45:00,
2013-08-13 09:50:00,66.8,61.7,30.46,North,0,0.0,0.0,84,0.00,,,0.00,WUHU216HW,2013-08-13 13:50:00,
2013-08-13 09:55:00,67.0,61.9,30.46,North,0,0.0,0.0,84,0.00,,,0.00,WUHU216HW,2013-08-13 13:55:00,
2013-08-13 10:00:00,67.0,61.7,30.47,North,0,0.0,0.0,83,0.00,,,0.00,WUHU216HW,2013-08-13 14:00:00,
2013-08-13 10:05:00,67.1,61.8,30.47,North,0,0.0,0.0,83,0.00,,,0.00,WUHU216HW,2013-08-13 14:05:00,
2013-08-13 10:10:00,67.3,62.0,30.47,North,0,0.0,0.0,83,0.00,,,0.00,WUHU216HW,2013-08-13 14:10:00,
2013-08-13 10:15:00,67.5,61.8,30.47,North,0,0.0,0.0,82,0.00,,,0.00,WUHU216HW,2013-08-13 14:15:00,
2013-08-13 10:20:00,67.9,61.6,30.47,North,0,0.0,0.0,80,0.00,,,0.00,WUHU216HW,2013-08-13 14:20:00,
2013-08-13 10:25:00,68.0,61.7,30.47,North,0,0.0,0.0,80,0.00,,,0.00,WUHU216HW,2013-08-13 14:25:00,
2013-08-13 10:30:00,68.4,62.1,30.47,North,0,0.0,0.0,80,0.00,,,0.00,WUHU216HW,2013-08-13 14:30:00,
2013-08-13 10:35:00,68.8,62.4,30.47,North,0,0.0,0.0,80,0.00,,,0.00,WUHU216HW,2013-08-13 14:35:00,
2013-08-13 10:40:00,68.9,62.6,30.47,North,0,0.0,0.0,80,0.00,,,0.00,WUHU216HW,2013-08-13 14:40:00,
2013-08-13 10:45:00,69.5,62.6,30.47,North,0,0.0,0.0,79,0.00,,,0.00,WUHU216HW,2013-08-13 14:45:00,
2013-08-13 10:51:00,69.7,62.8,30.47,North,0,0.0,0.0,79,0.00,,,0.00,WUHU216HW,2013-08-13 14:51:00,
2013-08-13 10:56:00,69.8,63.0,30.47,North,0,0.0,0.0,79,0.00,,,0.00,WUHU216HW,2013-08-13 14:56:00,
2013-08-13 11:01:00,69.8,62.2,30.48,North,0,0.0,0.0,77,0.00,,,0.00,WUHU216HW,2013-08-13 15:01:00,
2013-08-13 11:06:00,69.8,62.7,30.48,North,0,0.0,0.0,78,0.00,,,0.00,WUHU216HW,2013-08-13 15:06:00,
2013-08-13 11:11:00,70.0,62.4,30.48,North,0,0.0,0.0,77,0.00,,,0.00,WUHU216HW,2013-08-13 15:11:00,
2013-08-13 11:16:00,70.2,62.6,30.48,North,0,0.0,0.0,77,0.00,,,0.00,WUHU216HW,2013-08-13 15:16:00,
2013-08-13 11:21:00,70.6,62.9,30.48,North,0,0.0,0.0,77,0.00,,,0.00,WUHU216HW,2013-08-13 15:21:00,
2013-08-13 11:26:00,70.7,62.7,30.48,North,0,0.0,0.0,76,0.00,,,0.00,WUHU216HW,2013-08-13 15:26:00,
2013-08-13 11:31:00,70.9,62.6,30.49,North,0,0.0,0.0,75,0.00,,,0.00,WUHU216HW,2013-08-13 15:31:00,
2013-08-13 11:36:00,70.9,61.8,30.49,North,0,0.0,0.0,73,0.00,,,0.00,WUHU216HW,2013-08-13 15:36:00,
2013-08-13 11:41:00,70.9,61.8,30.49,North,0,0.0,0.0,73,0.00,,,0.00,WUHU216HW,2013-08-13 15:41:00,
2013-08-13 11:46:00,71.1,61.2,30.49,North,0,0.0,0.0,71,0.00,,,0.00,WUHU216HW,2013-08-13 15:46:00,
2013-08-13 11:51:00,71.3,61.4,30.49,North,0,0.0,0.0,71,0.00,,,0.00,WUHU216HW,2013-08-13 15:51:00,
2013-08-13 11:56:00,71.3,61.0,30.49,North,0,0.0,0.0,70,0.00,,,0.00,WUHU216HW,2013-08-13 15:56:00,
2013-08-13 12:01:00,71.5,61.2,30.49,North,0,0.0,0.0,70,0.00,,,0.00,WUHU216HW,2013-08-13 16:01:00,
2013-08-13 12:06:00,71.6,61.4,30.50,North,0,0.0,0.0,70,0.00,,,0.00,WUHU216HW,2013-08-13 16:06:00,
2013-08-13 12:11:00,72.0,62.1,30.50,North,0,0.0,0.0,71,0.00,,,0.00,WUHU216HW,2013-08-13 16:11:00,
2013-08-13 12:17:00,72.2,62.3,30.50,North,0,0.0,0.0,71,0.00,,,0.00,WUHU216HW,2013-08-13 16:17:00,
2013-08-13 12:22:00,72.4,62.5,30.50,North,0,0.0,0.0,71,0.00,,,0.00,WUHU216HW,2013-08-13 16:22:00,
2013-08-13 12:27:00,72.4,62.1,30.50,North,0,0.0,0.0,70,0.00,,,0.00,WUHU216HW,2013-08-13 16:27:00,
2013-08-13 12:32:00,72.4,61.7,30.50,North,0,0.0,0.0,69,0.00,,,0.00,WUHU216HW,2013-08-13 16:32:00,
2013-08-13 12:37:00,72.4,61.7,30.50,North,0,0.0,0.0,69,0.00,,,0.00,WUHU216HW,2013-08-13 16:37:00,
2013-08-13 12:42:00,72.4,61.7,30.50,North,0,0.0,0.0,69,0.00,,,0.00,WUHU216HW,2013-08-13 16:42:00,
2013-08-13 12:47:00,72.5,61.4,30.50,North,0,0.0,0.0,68,0.00,,,0.00,WUHU216HW,2013-08-13 16:47:00,
2013-08-13 12:52:00,72.5,61.8,30.50,North,0,0.0,0.0,69,0.00,,,0.00,WUHU216HW,2013-08-13 16:52:00,
2013-08-13 12:57:00,72.7,62.0,30.51,North,0,0.0,0.0,69,0.00,,,0.00,WUHU216HW,2013-08-13 16:57:00,
2013-08-13 13:01:00,72.7,62.0,30.51,North,0,0.0,0.0,69,0.00,,,0.00,WUHU216HW,2013-08-13 17:01:00,
2013-08-13 13:06:00,72.7,62.0,30.51,North,0,0.0,0.0,69,0.00,,,0.00,WUHU216HW,2013-08-13 17:06:00,
2013-08-13 13:12:00,72.5,61.4,30.51,North,0,0.0,0.0,68,0.00,,,0.00,WUHU216HW,2013-08-13 17:12:00,
2013-08-13 13:17:00,72.7,61.6,30.51,North,0,0.0,0.0,68,0.00,,,0.00,WUHU216HW,2013-08-13 17:17:00,